Location: Ahausen
(50.4985°N, 8.2722°E)
Time: 12:21:39
(UTC+00:00)

Envisat - Visible Passes

Search period start: 26 January 2022 00:00
Search period end: 05 February 2022 00:00
Orbit: 764 x 766 km, 98.2° (Epoch: 26 January)

Date Brightness Start Highest point End Pass type
(mag) Time Alt. Az. Time Alt. Az. Time Alt. Az.
26 Jan 6.1 02:44:03 10° E 02:44:21 10° E 02:44:40 10° E visible
26 Jan 3.3 04:19:17 10° NNE 04:24:22 67° ESE 04:29:25 10° S visible
26 Jan 4.1 05:59:05 10° N 06:02:57 22° WNW 06:06:48 10° WSW visible
27 Jan 4.5 03:42:42 10° NNE 03:47:18 33° E 03:51:53 10° SSE visible
27 Jan 3.4 05:21:40 10° N 05:26:24 40° WNW 05:31:07 10° SW visible
27 Jan 5.8 16:42:45 10° SW 16:46:19 19° W 16:49:55 10° NW visible
28 Jan 5.6 03:06:44 10° NE 03:10:03 17° E 03:13:19 10° SE visible
28 Jan 2.8 04:44:33 10° NNE 04:49:40 78° WNW 04:54:44 10° SSW visible
28 Jan 4.5 06:25:06 10° NNW 06:27:53 15° NW 06:30:41 10° W visible
29 Jan 3.6 04:07:44 10° NNE 04:12:44 54° E 04:17:42 10° S visible
29 Jan 3.9 05:47:16 10° N 05:51:28 26° WNW 05:55:39 10° WSW visible
29 Jan 6.2 17:10:17 10° WSW 17:11:59 11° W 17:13:40 10° WNW visible
30 Jan 4.9 03:31:18 10° NE 03:35:37 27° E 03:39:55 10° SSE visible
30 Jan 3.1 05:09:58 10° N 05:14:52 49° WNW 05:19:44 10° SW visible
31 Jan 5.8 02:55:43 10° NE 02:58:17 14° E 03:00:50 10° ESE visible
31 Jan 2.9 04:32:57 10° NNE 04:38:04 86° ESE 04:43:10 10° SSW visible
31 Jan 4.4 06:13:08 10° NNW 06:16:27 18° NW 06:19:47 10° W visible
01 Feb 4.1 03:56:13 10° NNE 04:01:05 43° E 04:05:55 10° S visible
01 Feb 3.7 05:35:31 10° N 05:39:59 32° WNW 05:44:25 10° SW visible
01 Feb 6.0 16:57:26 10° WSW 17:00:12 15° W 17:02:58 10° NW visible
02 Feb 5.2 03:19:56 10° NE 03:23:54 22° E 03:27:50 10° SE visible
02 Feb 3.0 04:58:17 10° N 05:03:19 60° WNW 05:08:18 10° SSW visible
03 Feb 6.0 02:45:13 10° ENE 02:46:30 11° E 02:47:46 10° E visible
03 Feb 3.2 04:21:21 10° NNE 04:26:27 71° ESE 04:31:31 10° S visible
03 Feb 4.2 06:01:14 10° N 06:04:59 21° WNW 06:08:44 10° WSW visible
04 Feb 4.4 03:44:44 10° NNE 03:49:25 35° E 03:54:04 10° SSE visible
04 Feb 3.5 05:23:47 10° N 05:28:28 38° WNW 05:33:08 10° SW visible
